Zurück zum Katalog

STARLINK-38217

AktivKommunikationSSO
NORAD 100170·PAYLOAD·🇺🇸 United States

Gestartet Jul 25, 2026 von Vandenberg Space Force Base

Loading…

Nächste Überflüge (nächste 24 Stunden)

TLE

AktuellSource: Space-Track

Epoche: Sep 14, 2026, 15:26 UTC

1 A0170U 26171Y   26257.64337599  .00012580  00000-0  39115-3 0  9991
2 A0170  97.2837 290.2487 0002115  78.3489 281.7991 15.33460026  8001

Verfolge STARLINK-38217 in Echtzeit mit AllMySat

Download on the App Store